{"data":{"norad_id":67236,"intl_designator":"2025-311A","name":"HULIANWANG DIGUI-128","alt_names":[],"object_type":"PAYLOAD","status":"ACTIVE","operator":null,"country":"PRC","launch_date":"2025-12-25","launch_site_code":"WSC","launch_vehicle":null,"mission":null,"orbit_class":"UNKNOWN","rcs_meters":null,"size_class":null,"mass_kg":null,"dimensions":null,"purposes":[],"wikipedia_slug":null,"has_3d_model":false,"image_url":null,"decayed_at":null,"tle_current":{"epoch":"2026-09-19T21:54:48.902400Z","epoch_age_seconds":153830,"freshness":"FRESH","line1":"1 67236U 25311A   26262.91306600 -.00000106  00000+0  39700-4 0  9999","line2":"2 67236  50.0074 135.8443 0000213 339.3841  20.7023 13.29327366 35944","mean_motion":13.29327366,"eccentricity":2.13e-5,"inclination_deg":50.0074,"raan_deg":135.8443,"arg_perigee_deg":339.3841,"mean_anomaly_deg":20.7023,"bstar":3.97e-5,"rev_number":3594,"period_min":108.32546119418,"perigee_km":1149.1410806774,"apogee_km":1149.4617495539,"semimajor_km":7527.4384151157,"source":"CELESTRAK","updated_at":"2026-09-21T09:00:16.507885Z"}}}